Вернуться в каталог

ARIANE 5 R/B

АктивенHEO
NORAD 41795·ROCKET BODY·🇫🇷 France

Запущен Oct 5, 2016 с Guiana Space Centre

Loading…

Ближайшие Пролёты (ближайшие 24 часа)

TLE

СвежийSource: Space-Track

Эпоха: Sep 14, 2026, 04:36 UTC

1 41795U 16060C   26257.19221014  .00025199  00000-0  16779-2 0  9999
2 41795   5.8756 266.5666 6896658 265.8519  19.2306  2.81118813 90193

Отслеживайте ARIANE 5 R/B в реальном времени с AllMySat

Download on the App Store